Location: Boissi�res
(45.2500°N, 2.3667°E)
Time: 15:02:03
(UTC+00:00)

Cosmos 2360 Rocket - Visible Passes

Search period start: 14 June 2021 00:00
Search period end: 24 June 2021 00:00
Orbit: 835 x 844 km, 71.0° (Epoch: 14 June)

Date Brightness Start Highest point End Pass type
(mag) Time Alt. Az. Time Alt. Az. Time Alt. Az.
14 Jun 4.8 00:19:00 10° WNW 00:21:42 13° NW 00:24:26 10° N visible
14 Jun 3.5 20:33:18 10° SE 20:37:17 20° E 20:41:16 10° NE visible
14 Jun 2.5 22:15:07 10° SW 22:20:43 65° WNW 22:26:21 10° NNE visible
15 Jun 4.8 00:02:58 10° WNW 00:05:53 14° NW 00:08:48 10° N visible
15 Jun 3.6 20:17:47 10° SE 20:21:34 19° E 20:25:22 10° ENE visible
15 Jun 2.5 21:59:20 10° SW 22:04:57 69° WNW 22:10:36 10° NNE visible
15 Jun 4.8 23:46:56 10° WNW 23:50:03 15° NW 23:53:10 10° N visible
16 Jun 2.4 21:43:33 10° SSW 21:49:11 73° WNW 21:54:51 10° NNE visible
16 Jun 4.8 23:30:56 10° WNW 23:34:13 15° NW 23:37:31 10° N visible
17 Jun 2.3 21:27:46 10° SSW 21:33:25 78° WNW 21:39:06 10° NNE visible
17 Jun 4.8 23:14:57 10° W 23:18:24 16° NW 23:21:52 10° N visible
18 Jun 2.3 21:12:00 10° SSW 21:17:40 82° WNW 21:23:21 10° NNE visible
18 Jun 4.9 22:58:58 10° W 23:02:35 17° NW 23:06:12 10° N visible
19 Jun 2.2 20:56:15 10° SSW 21:01:54 87° WNW 21:07:36 10° NNE visible
19 Jun 4.9 22:43:00 10° W 22:46:45 18° NW 22:50:32 10° N visible
20 Jun 2.2 20:40:30 10° SSW 20:46:09 88° ESE 20:51:50 10° NNE visible
20 Jun 4.9 22:27:03 10° W 22:30:56 19° NW 22:34:51 10° N visible
21 Jun 2.2 20:24:45 10° SSW 20:30:24 83° ESE 20:36:05 10° NNE visible
21 Jun 4.9 22:11:06 10° W 22:15:08 20° NW 22:19:10 10° N visible
22 Jun 2.2 20:09:01 10° SSW 20:14:39 79° ESE 20:20:19 10° NNE visible
22 Jun 4.8 21:55:10 10° W 21:59:19 21° NW 22:03:29 10° N visible
23 Jun 5.6 03:18:40 10° NNE 03:20:50 12° NE 03:23:01 10° ENE visible
23 Jun 4.8 21:39:14 10° W 21:43:31 22° NW 21:47:48 10° N visible
